GJS4477 KPWM-KEWR

Flight info

Callsign GJS4477
Flight time 1h 7m
Altitude 24000
Route HSKEL3 HANAA FLOSI4
Aircraft CRJ7/M-SDFGIRWY/S

Departure

Time 2026-04-25 18:12
Airport Portland International Jetport (KPWM)

Arrival

Time 2026-04-25 19:19
Airport Newark Liberty International Airport (KEWR)
Time Latitude Longitude Altitude Speed Heading
2026-04-25 17:31 43.64648 -70.30872 58 ft 0 kts
2026-04-25 17:31 43.64649 -70.30872 58 ft 0 kts
2026-04-25 17:39 43.64649 -70.30871 58 ft 0 kts
2026-04-25 17:41 43.64650 -70.30871 58 ft 0 kts
2026-04-25 17:53 43.64651 -70.30871 58 ft 0 kts
2026-04-25 18:01 43.64634 -70.30873 51 ft 2 kts
2026-04-25 18:01 43.64618 -70.30875 52 ft 2 kts
2026-04-25 18:01 43.64601 -70.30876 54 ft 2 kts
2026-04-25 18:02 43.64590 -70.30878 56 ft 0 kts
2026-04-25 18:02 43.64589 -70.30878 56 ft 0 kts
2026-04-25 18:04 43.64590 -70.30878 57 ft 0 kts
2026-04-25 18:05 43.64591 -70.30878 57 ft 0 kts 332°
2026-04-25 18:05 43.64592 -70.30882 53 ft 0 kts 273°
2026-04-25 18:05 43.64590 -70.30897 55 ft 2 kts 260°
2026-04-25 18:05 43.64587 -70.30928 52 ft 7 kts 267°
2026-04-25 18:06 43.64590 -70.31000 54 ft 8 kts 274°
2026-04-25 18:06 43.64595 -70.31077 59 ft 9 kts 275°
2026-04-25 18:06 43.64600 -70.31165 60 ft 11 kts 275°
2026-04-25 18:06 43.64608 -70.31275 61 ft 12 kts 276°
2026-04-25 18:07 43.64616 -70.31383 63 ft 11 kts 276°
2026-04-25 18:07 43.64623 -70.31488 65 ft 11 kts 275°
2026-04-25 18:07 43.64630 -70.31589 67 ft 10 kts 275°
2026-04-25 18:07 43.64635 -70.31678 62 ft 9 kts 275°
2026-04-25 18:08 43.64641 -70.31761 72 ft 9 kts 275°
2026-04-25 18:08 43.64647 -70.31851 66 ft 9 kts 275°
2026-04-25 18:08 43.64653 -70.31943 70 ft 10 kts 275°
2026-04-25 18:08 43.64660 -70.32043 73 ft 10 kts 275°
2026-04-25 18:09 43.64666 -70.32134 80 ft 9 kts 275°
2026-04-25 18:09 43.64672 -70.32226 81 ft 10 kts 276°
2026-04-25 18:09 43.64679 -70.32315 85 ft 9 kts 276°
2026-04-25 18:09 43.64681 -70.32345 82 ft 10 kts 276°
2026-04-25 18:10 43.64682 -70.32495 81 ft 9 kts 267°
2026-04-25 18:10 43.64663 -70.32569 82 ft 8 kts 220°
2026-04-25 18:10 43.64618 -70.32587 85 ft 6 kts 179°
2026-04-25 18:10 43.64587 -70.32562 83 ft 5 kts 114°
2026-04-25 18:11 43.64584 -70.32544 83 ft 0 kts 97°
2026-04-25 18:11 43.64583 -70.32534 84 ft 13 kts 96°
2026-04-25 18:11 43.64546 -70.32001 68 ft 98 kts 95°
2026-04-25 18:11 43.64469 -70.30761 215 ft 145 kts 100°
2026-04-25 18:12 43.64406 -70.29357 1085 ft 147 kts 92°
2026-04-25 18:12 43.64496 -70.27930 1658 ft 157 kts 75°
2026-04-25 18:12 43.64890 -70.26492 2211 ft 159 kts 65°
2026-04-25 18:12 43.65342 -70.25087 2870 ft 169 kts 60°
2026-04-25 18:13 43.66053 -70.23677 3362 ft 184 kts 43°
2026-04-25 18:13 43.67087 -70.22691 4213 ft 186 kts 22°
2026-04-25 18:13 43.68388 -70.22420 5107 ft 194 kts 354°
2026-04-25 18:14 43.70602 -70.24539 7023 ft 205 kts 309°
2026-04-25 18:14 43.71498 -70.26169 7741 ft 221 kts 308°
2026-04-25 18:14 43.72410 -70.27946 8477 ft 236 kts 302°
2026-04-25 18:14 43.73268 -70.29968 9257 ft 249 kts 300°
2026-04-25 18:15 43.74136 -70.32095 10183 ft 255 kts 300°
2026-04-25 18:15 43.75039 -70.34279 10898 ft 269 kts 300°
2026-04-25 18:15 43.76003 -70.36554 11539 ft 283 kts 299°
2026-04-25 18:15 43.76598 -70.39205 12169 ft 299 kts 273°
2026-04-25 18:16 43.76494 -70.42150 12867 ft 314 kts 264°
2026-04-25 18:16 43.76173 -70.45170 13739 ft 320 kts 262°
2026-04-25 18:16 43.75422 -70.51312 15429 ft 326 kts 263°
2026-04-25 18:17 43.75065 -70.54382 16234 ft 329 kts 264°
2026-04-25 18:17 43.74720 -70.57529 17023 ft 331 kts 265°
2026-04-25 18:17 43.74390 -70.60707 17783 ft 334 kts 265°
2026-04-25 18:17 43.74070 -70.63870 18501 ft 336 kts 266°
2026-04-25 18:18 43.73748 -70.67085 19164 ft 338 kts 266°
2026-04-25 18:18 43.73422 -70.70312 19832 ft 339 kts 267°
2026-04-25 18:18 43.73087 -70.73557 20484 ft 340 kts 267°
2026-04-25 18:18 43.72749 -70.76781 21119 ft 342 kts 268°
2026-04-25 18:19 43.72391 -70.80045 21759 ft 344 kts 266°
2026-04-25 18:19 43.71711 -70.83275 22358 ft 353 kts 258°
2026-04-25 18:19 43.70796 -70.86414 22937 ft 358 kts 255°
2026-04-25 18:19 43.69800 -70.89604 23524 ft 360 kts 256°
2026-04-25 18:20 43.68806 -70.92835 23845 ft 368 kts 256°
2026-04-25 18:20 43.67820 -70.96127 23982 ft 380 kts 256°
2026-04-25 18:20 43.66816 -70.99567 24054 ft 386 kts 256°
2026-04-25 18:20 43.65822 -71.02995 24080 ft 389 kts 256°
2026-04-25 18:21 43.64912 -71.06512 24098 ft 385 kts 261°
2026-04-25 18:21 43.64266 -71.10068 24098 ft 384 kts 264°
2026-04-25 18:21 43.63694 -71.13709 24101 ft 385 kts 265°
2026-04-25 18:21 43.63126 -71.17298 24099 ft 386 kts 264°
2026-04-25 18:22 43.62496 -71.20908 24098 ft 385 kts 263°
2026-04-25 18:22 43.62281 -71.22081 24101 ft 384 kts 263°
2026-04-25 18:22 43.61197 -71.28037 24098 ft 381 kts 263°
2026-04-25 18:22 43.60559 -71.31549 24098 ft 379 kts 263°
2026-04-25 18:23 43.59916 -71.35086 24093 ft 378 kts 263°
2026-04-25 18:23 43.59283 -71.38566 24095 ft 376 kts 262°
2026-04-25 18:23 43.58643 -71.42074 24089 ft 374 kts 262°
2026-04-25 18:23 43.58017 -71.45509 24095 ft 372 kts 262°
2026-04-25 18:24 43.57385 -71.48962 24093 ft 370 kts 262°
2026-04-25 18:24 43.56753 -71.52405 24096 ft 369 kts 262°
2026-04-25 18:24 43.56123 -71.55832 24097 ft 368 kts 262°
2026-04-25 18:24 43.55498 -71.59229 24105 ft 367 kts 262°
2026-04-25 18:25 43.54868 -71.62654 24101 ft 368 kts 262°
2026-04-25 18:25 43.54229 -71.66119 24107 ft 373 kts 262°
2026-04-25 18:25 43.53594 -71.69558 24116 ft 376 kts 262°
2026-04-25 18:25 43.52942 -71.73062 24108 ft 379 kts 262°
2026-04-25 18:26 43.52288 -71.76592 24103 ft 381 kts 261°
2026-04-25 18:26 43.51630 -71.80125 24110 ft 376 kts 261°
2026-04-25 18:26 43.50988 -71.83573 24109 ft 374 kts 261°
2026-04-25 18:26 43.50331 -71.87099 24114 ft 381 kts 261°
2026-04-25 18:27 43.49883 -71.89451 24110 ft 385 kts 259°
2026-04-25 18:27 43.48707 -71.94081 24103 ft 385 kts 252°
2026-04-25 18:27 43.47923 -71.96285 24097 ft 383 kts 249°
2026-04-25 18:27 43.46643 -71.99483 24083 ft 378 kts 247°
2026-04-25 18:28 43.45358 -72.02646 24084 ft 379 kts 248°
2026-04-25 18:28 43.44075 -72.05827 24093 ft 379 kts 248°
2026-04-25 18:28 43.42822 -72.09006 24092 ft 380 kts 248°
2026-04-25 18:29 43.40318 -72.15474 24101 ft 383 kts 248°
2026-04-25 18:29 43.39074 -72.18690 24113 ft 384 kts 248°
2026-04-25 18:30 43.35291 -72.28437 24092 ft 386 kts 248°
2026-04-25 18:30 43.34022 -72.31698 24106 ft 387 kts 248°
2026-04-25 18:30 43.32748 -72.34968 24099 ft 387 kts 248°
2026-04-25 18:30 43.31489 -72.38201 24097 ft 388 kts 248°
2026-04-25 18:31 43.30213 -72.41468 24079 ft 385 kts 248°
2026-04-25 18:31 43.28953 -72.44691 24079 ft 379 kts 248°
2026-04-25 18:31 43.27713 -72.47859 24079 ft 375 kts 248°
2026-04-25 18:31 43.26483 -72.51007 24076 ft 371 kts 248°
2026-04-25 18:32 43.25277 -72.54087 24086 ft 370 kts 248°
2026-04-25 18:32 43.24059 -72.57189 24094 ft 368 kts 248°
2026-04-25 18:32 43.22838 -72.60295 24082 ft 367 kts 248°
2026-04-25 18:32 43.21642 -72.63336 24085 ft 367 kts 248°
2026-04-25 18:33 43.20427 -72.66427 24085 ft 367 kts 248°
2026-04-25 18:33 43.19214 -72.69508 24088 ft 367 kts 248°
2026-04-25 18:33 43.17993 -72.72606 24100 ft 370 kts 247°
2026-04-25 18:33 43.16779 -72.75685 24092 ft 372 kts 247°
2026-04-25 18:34 43.15534 -72.78838 24099 ft 375 kts 247°
2026-04-25 18:34 43.14307 -72.81939 24102 ft 373 kts 247°
2026-04-25 18:34 43.13069 -72.85059 24097 ft 372 kts 247°
2026-04-25 18:34 43.11833 -72.88168 24096 ft 370 kts 247°
2026-04-25 18:35 43.10601 -72.91268 24083 ft 369 kts 247°
2026-04-25 18:35 43.09373 -72.94362 24091 ft 368 kts 247°
2026-04-25 18:35 43.08166 -72.97400 24080 ft 367 kts 247°
2026-04-25 18:35 43.06941 -73.00474 24073 ft 366 kts 247°
2026-04-25 18:36 43.05722 -73.03534 24070 ft 365 kts 247°
2026-04-25 18:36 43.04509 -73.06567 24068 ft 365 kts 246°
2026-04-25 18:36 43.03287 -73.09623 24075 ft 365 kts 246°
2026-04-25 18:36 43.02082 -73.12634 24074 ft 364 kts 246°
2026-04-25 18:37 43.00862 -73.15685 24073 ft 364 kts 246°
2026-04-25 18:37 42.99653 -73.18704 24067 ft 365 kts 246°
2026-04-25 18:37 42.98426 -73.21761 24054 ft 365 kts 246°
2026-04-25 18:37 42.97200 -73.24812 24043 ft 366 kts 246°
2026-04-25 18:38 42.95970 -73.27874 24056 ft 367 kts 246°
2026-04-25 18:38 42.94748 -73.30912 24062 ft 370 kts 246°
2026-04-25 18:38 42.93502 -73.34005 24064 ft 371 kts 246°
2026-04-25 18:38 42.92265 -73.37074 24063 ft 373 kts 246°
2026-04-25 18:39 42.91008 -73.40181 24065 ft 374 kts 246°
2026-04-25 18:39 42.89744 -73.43307 24067 ft 376 kts 246°
2026-04-25 18:39 42.88479 -73.46432 24068 ft 377 kts 246°
2026-04-25 18:39 42.87221 -73.49536 24070 ft 378 kts 245°
2026-04-25 18:40 42.85941 -73.52689 24077 ft 379 kts 245°
2026-04-25 18:40 42.84664 -73.55837 24077 ft 380 kts 245°
2026-04-25 18:40 42.83378 -73.59003 24078 ft 381 kts 245°
2026-04-25 18:40 42.82104 -73.62136 24075 ft 381 kts 245°
2026-04-25 18:41 42.80811 -73.65312 24085 ft 382 kts 245°
2026-04-25 18:41 42.79529 -73.68451 24074 ft 383 kts 245°
2026-04-25 18:41 42.78229 -73.71632 24072 ft 383 kts 245°
2026-04-25 18:41 42.76937 -73.74794 24068 ft 381 kts 245°
2026-04-25 18:42 42.75633 -73.77936 24064 ft 380 kts 242°
2026-04-25 18:42 42.74514 -73.79796 24061 ft 387 kts 227°
2026-04-25 18:42 42.71423 -73.82127 24063 ft 380 kts 206°
2026-04-25 18:42 42.68927 -73.83197 24065 ft 372 kts 202°
2026-04-25 18:43 42.66454 -73.84151 24058 ft 366 kts 202°
2026-04-25 18:43 42.64009 -73.85110 24059 ft 364 kts 203°
2026-04-25 18:43 42.61621 -73.86138 24061 ft 363 kts 205°
2026-04-25 18:43 42.59203 -73.87235 24064 ft 363 kts 205°
2026-04-25 18:44 42.56834 -73.88300 24069 ft 362 kts 205°
2026-04-25 18:44 42.54435 -73.89375 24074 ft 362 kts 205°
2026-04-25 18:44 42.52032 -73.90447 23999 ft 364 kts 205°
2026-04-25 18:44 42.49621 -73.91522 23694 ft 362 kts 205°
2026-04-25 18:45 42.47259 -73.92579 23285 ft 359 kts 205°
2026-04-25 18:45 42.44880 -73.93636 22865 ft 356 kts 205°
2026-04-25 18:45 42.42557 -73.94669 22470 ft 353 kts 205°
2026-04-25 18:45 42.40218 -73.95710 22079 ft 351 kts 205°
2026-04-25 18:46 42.37925 -73.96726 21694 ft 349 kts 204°
2026-04-25 18:46 42.35618 -73.97754 21318 ft 347 kts 204°
2026-04-25 18:46 42.33320 -73.98773 20943 ft 345 kts 204°
2026-04-25 18:46 42.31061 -73.99774 20581 ft 345 kts 204°
2026-04-25 18:47 42.28766 -74.00792 20225 ft 346 kts 204°
2026-04-25 18:47 42.26483 -74.01800 19862 ft 342 kts 204°
2026-04-25 18:47 42.24258 -74.02777 19515 ft 338 kts 204°
2026-04-25 18:47 42.22025 -74.03765 19155 ft 334 kts 204°
2026-04-25 18:48 42.19817 -74.04746 18808 ft 330 kts 204°
2026-04-25 18:48 42.17639 -74.05711 18511 ft 331 kts 204°
2026-04-25 18:48 42.15461 -74.06675 18194 ft 335 kts 204°
2026-04-25 18:48 42.13213 -74.07670 17864 ft 338 kts 203°
2026-04-25 18:49 42.10999 -74.08643 17524 ft 337 kts 203°
2026-04-25 18:49 42.08773 -74.09620 17194 ft 333 kts 203°
2026-04-25 18:49 42.06586 -74.10572 16847 ft 327 kts 203°
2026-04-25 18:49 42.04433 -74.11522 16509 ft 322 kts 203°
2026-04-25 18:50 42.02315 -74.12457 16164 ft 317 kts 203°
2026-04-25 18:50 42.00250 -74.13363 15855 ft 314 kts 203°
2026-04-25 18:50 41.98181 -74.14269 15530 ft 310 kts 203°
2026-04-25 18:50 41.96137 -74.15166 15220 ft 306 kts 202°
2026-04-25 18:51 41.94147 -74.16037 14933 ft 302 kts 202°
2026-04-25 18:51 41.92817 -74.16620 14746 ft 302 kts 202°
2026-04-25 18:51 41.90155 -74.17783 14363 ft 302 kts 202°
2026-04-25 18:51 41.88160 -74.18651 14097 ft 298 kts 202°
2026-04-25 18:52 41.86191 -74.19504 13829 ft 295 kts 202°
2026-04-25 18:52 41.84242 -74.20359 13505 ft 293 kts 202°
2026-04-25 18:52 41.82320 -74.21208 13181 ft 294 kts 202°
2026-04-25 18:52 41.80365 -74.22065 12880 ft 294 kts 201°
2026-04-25 18:53 41.78418 -74.22914 12576 ft 293 kts 201°
2026-04-25 18:53 41.76477 -74.23757 12269 ft 293 kts 201°
2026-04-25 18:53 41.74556 -74.24592 11952 ft 292 kts 201°
2026-04-25 18:53 41.72627 -74.25430 11642 ft 291 kts 201°
2026-04-25 18:54 41.68781 -74.27100 11031 ft 289 kts 200°
2026-04-25 18:54 41.66865 -74.27925 10738 ft 289 kts 200°
2026-04-25 18:54 41.64959 -74.28758 10462 ft 287 kts 200°
2026-04-25 18:55 41.63095 -74.29571 10181 ft 284 kts 200°
2026-04-25 18:55 41.61224 -74.30385 9879 ft 281 kts 200°
2026-04-25 18:55 41.59364 -74.31191 9597 ft 279 kts 200°
2026-04-25 18:55 41.57518 -74.31987 9316 ft 277 kts 200°
2026-04-25 18:56 41.55700 -74.32773 9026 ft 274 kts 200°
2026-04-25 18:56 41.53884 -74.33554 8726 ft 272 kts 200°
2026-04-25 18:56 41.52110 -74.34325 8416 ft 270 kts 200°
2026-04-25 18:56 41.50317 -74.35099 8105 ft 271 kts 200°
2026-04-25 18:57 41.48518 -74.35875 7805 ft 271 kts 200°
2026-04-25 18:57 41.46720 -74.36659 7516 ft 271 kts 200°
2026-04-25 18:57 41.44941 -74.37424 7249 ft 270 kts 200°
2026-04-25 18:57 41.44335 -74.37685 7184 ft 269 kts 200°
2026-04-25 18:58 41.41392 -74.38961 7022 ft 270 kts 200°
2026-04-25 18:58 41.37826 -74.40525 7001 ft 266 kts 201°
2026-04-25 18:58 41.36076 -74.41286 6993 ft 260 kts 201°
2026-04-25 18:59 41.32640 -74.42767 6984 ft 268 kts 200°
2026-04-25 18:59 41.29108 -74.44279 6979 ft 259 kts 200°
2026-04-25 19:00 41.25667 -74.45751 7021 ft 265 kts 200°
2026-04-25 19:00 41.23912 -74.46502 7025 ft 263 kts 201°
2026-04-25 19:01 41.20470 -74.47971 7016 ft 260 kts 201°
2026-04-25 19:01 41.18728 -74.48719 7005 ft 265 kts 201°
2026-04-25 19:01 41.16977 -74.49476 6986 ft 264 kts 201°
2026-04-25 19:01 41.15234 -74.50218 6977 ft 262 kts 201°
2026-04-25 19:02 41.11783 -74.51679 6690 ft 258 kts 201°
2026-04-25 19:02 41.10072 -74.52408 6439 ft 256 kts 200°
2026-04-25 19:02 41.08404 -74.53120 6183 ft 254 kts 200°
2026-04-25 19:03 41.06131 -74.53972 5824 ft 253 kts 192°
2026-04-25 19:03 41.03210 -74.54282 5404 ft 253 kts 181°
2026-04-25 19:03 41.01472 -74.54202 5183 ft 252 kts 179°
2026-04-25 19:04 40.98031 -74.53942 5067 ft 242 kts 178°
2026-04-25 19:04 40.96905 -74.53851 5031 ft 247 kts 178°
2026-04-25 19:05 40.92943 -74.53497 5015 ft 247 kts 178°
2026-04-25 19:05 40.89593 -74.53202 5008 ft 250 kts 178°
2026-04-25 19:05 40.87816 -74.53043 5030 ft 261 kts 177°
2026-04-25 19:06 40.85979 -74.52887 5033 ft 262 kts 178°
2026-04-25 19:06 40.82503 -74.52570 4941 ft 248 kts 178°
2026-04-25 19:06 40.80770 -74.52417 4686 ft 247 kts 177°
2026-04-25 19:07 40.77400 -74.52199 4194 ft 242 kts 178°
2026-04-25 19:07 40.75712 -74.52113 4106 ft 241 kts 177°
2026-04-25 19:08 40.72385 -74.51978 4048 ft 238 kts 178°
2026-04-25 19:08 40.70734 -74.51919 3925 ft 234 kts 178°
2026-04-25 19:09 40.66076 -74.51843 3323 ft 215 kts 177°
2026-04-25 19:09 40.65589 -74.51846 3263 ft 216 kts 177°
2026-04-25 19:09 40.61651 -74.51932 2856 ft 201 kts 177°
2026-04-25 19:10 40.60356 -74.51988 3064 ft 174 kts 177°
2026-04-25 19:10 40.59139 -74.52056 2931 ft 184 kts 178°
2026-04-25 19:10 40.57841 -74.52132 2894 ft 186 kts 177°
2026-04-25 19:10 40.56698 -74.51561 2788 ft 182 kts 134°
2026-04-25 19:11 40.56196 -74.50038 2774 ft 184 kts 109°
2026-04-25 19:11 40.55824 -74.48406 2795 ft 188 kts 109°
2026-04-25 19:11 40.55481 -74.46741 2793 ft 192 kts 108°
2026-04-25 19:11 40.55138 -74.45039 2797 ft 192 kts 108°
2026-04-25 19:12 40.54818 -74.43398 2784 ft 188 kts 107°
2026-04-25 19:12 40.54487 -74.41722 2792 ft 190 kts 107°
2026-04-25 19:12 40.54158 -74.40062 2789 ft 189 kts 107°
2026-04-25 19:12 40.53829 -74.38399 2800 ft 185 kts 107°
2026-04-25 19:13 40.53503 -74.36772 2785 ft 182 kts 107°
2026-04-25 19:13 40.53186 -74.35181 2791 ft 183 kts 107°
2026-04-25 19:13 40.52862 -74.33529 2725 ft 190 kts 107°
2026-04-25 19:13 40.52879 -74.31784 2483 ft 195 kts 85°
2026-04-25 19:14 40.53186 -74.30044 2257 ft 194 kts 79°
2026-04-25 19:14 40.53303 -74.29465 2198 ft 193 kts 79°
2026-04-25 19:14 40.53977 -74.26646 1976 ft 196 kts 66°
2026-04-25 19:14 40.54607 -74.25778 1849 ft 202 kts 39°
2026-04-25 19:15 40.55856 -74.24920 1786 ft 201 kts 31°
2026-04-25 19:15 40.57499 -74.23907 1745 ft 183 kts 29°
2026-04-25 19:15 40.58244 -74.23472 1720 ft 164 kts 29°
2026-04-25 19:15 40.59222 -74.22886 1693 ft 156 kts 30°
2026-04-25 19:16 40.60199 -74.22265 1691 ft 153 kts 31°
2026-04-25 19:16 40.61171 -74.21632 1549 ft 160 kts 32°
2026-04-25 19:16 40.62159 -74.20986 1317 ft 159 kts 31°
2026-04-25 19:16 40.63107 -74.20386 1061 ft 147 kts 31°
2026-04-25 19:17 40.64015 -74.19830 870 ft 140 kts 32°
2026-04-25 19:17 40.64888 -74.19287 709 ft 141 kts 32°
2026-04-25 19:17 40.65764 -74.18712 497 ft 137 kts 31°
2026-04-25 19:17 40.66631 -74.18156 334 ft 136 kts 30°
2026-04-25 19:18 40.67460 -74.17618 155 ft 132 kts 29°
2026-04-25 19:18 40.68199 -74.17146 30 ft 127 kts 28°
2026-04-25 19:18 40.68815 -74.16748 18 ft 99 kts 26°
2026-04-25 19:18 40.69283 -74.16455 22 ft 54 kts 25°
2026-04-25 19:19 40.69512 -74.16316 20 ft 24 kts 18°
2026-04-25 19:19 40.69635 -74.16291 18 ft 16 kts 356°
2026-04-25 19:19 40.69715 -74.16300 18 ft 7 kts 342°
2026-04-25 19:19 40.69736 -74.16327 16 ft 6 kts 293°
2026-04-25 19:20 40.69734 -74.16382 17 ft 5 kts 263°
2026-04-25 19:20 40.69744 -74.16459 19 ft 12 kts 292°
2026-04-25 19:20 40.69782 -74.16561 14 ft 5 kts 296°
2026-04-25 19:20 40.69797 -74.16602 13 ft 1 kts 296°
2026-04-25 19:21 40.69807 -74.16632 13 ft 6 kts 289°
2026-04-25 19:21 40.69787 -74.16741 15 ft 7 kts 243°
2026-04-25 19:21 40.69760 -74.16803 16 ft 9 kts 229°
2026-04-25 19:22 40.69702 -74.16850 17 ft 10 kts 205°
2026-04-25 19:22 40.69652 -74.16895 17 ft 8 kts 234°
2026-04-25 19:22 40.69617 -74.17015 17 ft 6 kts 251°
2026-04-25 19:23 40.69604 -74.17067 18 ft 6 kts 255°
2026-04-25 19:23 40.69673 -74.17150 19 ft 10 kts 332°
2026-04-25 19:23 40.69727 -74.17197 19 ft 7 kts 324°
2026-04-25 19:24 40.69761 -74.17231 19 ft 5 kts 319°
2026-04-25 19:24 40.69784 -74.17262 24 ft 4 kts 298°
2026-04-25 19:24 40.69739 -74.17356 20 ft 7 kts 220°
2026-04-25 19:25 40.69658 -74.17446 18 ft 8 kts 220°
2026-04-25 19:25 40.69621 -74.17487 19 ft 5 kts 221°
2026-04-25 19:25 40.69598 -74.17514 18 ft 5 kts 221°
2026-04-25 19:26 40.69580 -74.17537 18 ft 4 kts 235°
2026-04-25 19:26 40.69579 -74.17563 18 ft 2 kts 289°
2026-04-25 19:26 40.69586 -74.17581 20 ft 2 kts 303°
2026-04-25 19:26 40.69593 -74.17592 20 ft 2 kts 305°
2026-04-25 19:27 40.69596 -74.17599 19 ft 0 kts 304°